M I D A S
Marine Information and Data Acquisition System
Tripno 734 of the Zeeleeuw from 2004-06-11 06:30:01 to 2004-06-11 14:35:07
Back to CruiseResearch ActivitiesStationsMapUnderway DataData graphs

EquipmentUnitsComment
TimeDGPSUTC
LatitudeDGPSDM.mWGS84
LongitudeDGPSDM.mWGS84
HeadingGyrodeg 
SOGDGPSknotsSpeed over ground
COGDGPSdegCourse over ground
DepthEcho soundermeters200 kHz
Missing or incorrect values are displayed as -999
Navigation data collected by the RV Zeeleeuw from 2004-06-11 06:30:01 to 2004-06-11 14:35:07
                                                                                    Next 1000 lines
Time Latitude Longitude Heading SOG COG Depth
2004-06-11 06:30:09 51°14.064 2°55.485 341.6 8.2 334 14
2004-06-11 06:30:14 51°14.074 2°55.476 338.8 8.2 333 14
2004-06-11 06:30:19 51°14.084 2°55.468 337.8 8.2 332 13.9
2004-06-11 06:30:23 51°14.092 2°55.461 337.6 8.3 332 13.8
2004-06-11 06:30:29 51°14.105 2°55.45 338 8.6 333 13.8
2004-06-11 06:30:34 51°14.116 2°55.441 337.7 9.1 332 13.8
2004-06-11 06:30:39 51°14.127 2°55.431 337.3 9.3 331 13.9
2004-06-11 06:30:43 51°14.137 2°55.423 336.9 9.7 331 13.9
2004-06-11 06:30:49 51°14.151 2°55.41 336 9.9 330 13.9
2004-06-11 06:30:54 51°14.163 2°55.399 335 10.1 329 13.9
2004-06-11 06:30:59 51°14.175 2°55.386 333.8 10.3 328 14
2004-06-11 06:31:04 51°14.187 2°55.373 332.6 10.4 327 14
2004-06-11 06:31:10 51°14.201 2°55.356 330.9 10.5 324 14
2004-06-11 06:31:14 51°14.211 2°55.344 329.2 10.7 322 14
2004-06-11 06:31:19 51°14.222 2°55.329 327.1 10.8 320 14
2004-06-11 06:31:23 51°14.231 2°55.315 323.9 11 318 14.1
2004-06-11 06:31:29 51°14.244 2°55.294 320.8 11.3 314 14.1
2004-06-11 06:31:34 51°14.255 2°55.276 319.3 11.4 314 13.8
2004-06-11 06:31:39 51°14.265 2°55.257 318.4 11.6 313 13.8
2004-06-11 06:31:43 51°14.274 2°55.241 318.2 11.7 313 13.8
2004-06-11 06:31:49 51°14.287 2°55.218 317.4 11.9 311 13.7
2004-06-11 06:31:54 51°14.298 2°55.198 316.5 12.1 312 13.7
2004-06-11 06:31:59 51°14.31 2°55.177 316.5 12.2 312 13.8
2004-06-11 06:32:04 51°14.321 2°55.157 316.5 12.4 311 13.7
2004-06-11 06:32:09 51°14.332 2°55.136 316.5 12.5 311 13.6
2004-06-11 06:32:14 51°14.344 2°55.115 316.9 12.6 312 13.3
2004-06-11 06:32:19 51°14.356 2°55.094 317.3 12.7 312 12.9
2004-06-11 06:32:24 51°14.367 2°55.073 317.4 12.7 312 13.2
2004-06-11 06:32:29 51°14.379 2°55.052 316.6 12.7 312 13.4
2004-06-11 06:32:33 51°14.389 2°55.035 315 12.7 312 13.4
2004-06-11 06:32:38 51°14.401 2°55.015 314 12.7 313 13.5
2004-06-11 06:32:43 51°14.412 2°54.994 313.6 12.7 313 13.2
2004-06-11 06:32:49 51°14.427 2°54.97 312.9 12.5 313 13
2004-06-11 06:32:54 51°14.438 2°54.949 311.1 12.3 310 13.2
2004-06-11 06:32:59 51°14.448 2°54.927 308.3 12.2 308 12.9
2004-06-11 06:33:03 51°14.454 2°54.909 303.7 11.9 302 13
2004-06-11 06:33:09 51°14.463 2°54.882 298.6 11.6 298 12.9
2004-06-11 06:33:14 51°14.469 2°54.859 294.3 11.4 293 12.9
2004-06-11 06:33:19 51°14.475 2°54.835 290.2 11.4 290 12.9
2004-06-11 06:33:25 51°14.48 2°54.806 288.1 11.3 288 13
2004-06-11 06:33:29 51°14.484 2°54.787 286.6 11.4 285 13
2004-06-11 06:33:34 51°14.487 2°54.762 284.5 11.4 283 13.1
2004-06-11 06:33:39 51°14.49 2°54.738 283 11.4 282 13.1
2004-06-11 06:33:44 51°14.494 2°54.713 282.4 11.4 282 13.1
2004-06-11 06:33:49 51°14.497 2°54.689 282.6 11.4 283 13.1
2004-06-11 06:33:54 51°14.501 2°54.664 282.4 11.4 282 13
2004-06-11 06:33:59 51°14.504 2°54.64 281.6 11.3 281 13.2
2004-06-11 06:34:04 51°14.506 2°54.615 280.2 11.3 280 13.5
2004-06-11 06:34:09 51°14.508 2°54.59 278.6 11.3 277 13.1
2004-06-11 06:34:14 51°14.51 2°54.566 277.6 11.3 277 13.2
2004-06-11 06:34:19 51°14.512 2°54.541 277.4 11.3 277 13.1
2004-06-11 06:34:24 51°14.514 2°54.516 278 11.4 278 13.3
2004-06-11 06:34:29 51°14.516 2°54.491 278.7 11.4 278 13.8
2004-06-11 06:34:34 51°14.518 2°54.466 279.1 11.4 278 13.4
2004-06-11 06:34:39 51°14.52 2°54.441 279 11.5 278 13.3
2004-06-11 06:34:43 51°14.522 2°54.421 278.8 11.5 278 13.5
2004-06-11 06:34:49 51°14.525 2°54.391 278.7 11.4 278 13.3
2004-06-11 06:34:54 51°14.527 2°54.366 278.2 11.4 277 13.3
2004-06-11 06:34:59 51°14.528 2°54.34 277.5 11.4 276 13.6
2004-06-11 06:35:03 51°14.529 2°54.32 276.5 11.5 275 13.6
2004-06-11 06:35:09 51°14.531 2°54.29 275.2 11.4 274 13.7
2004-06-11 06:35:14 51°14.531 2°54.265 274.1 11.4 273 13.6
2004-06-11 06:35:19 51°14.532 2°54.24 274.3 11.4 274 13.4
2004-06-11 06:35:23 51°14.533 2°54.219 275.7 11.5 275 13.3
2004-06-11 06:35:29 51°14.535 2°54.189 275.9 11.5 275 13.4
2004-06-11 06:35:34 51°14.537 2°54.164 275.8 11.5 275 13.3
2004-06-11 06:35:39 51°14.538 2°54.139 275.4 11.5 275 14
2004-06-11 06:35:43 51°14.538 2°54.118 274.6 11.5 274 13.8
2004-06-11 06:35:49 51°14.54 2°54.088 274.4 11.5 274 13.9
2004-06-11 06:35:54 51°14.541 2°54.063 275.4 11.5 274 13.4
2004-06-11 06:35:59 51°14.543 2°54.037 276.3 11.6 277 13.7
2004-06-11 06:36:03 51°14.544 2°54.017 277 11.5 277 13.1
2004-06-11 06:36:07 51°14.546 2°53.997 277.2 11.5 278 12.7
2004-06-11 06:36:14 51°14.549 2°53.962 277.6 11.5 278 12.7
2004-06-11 06:36:19 51°14.551 2°53.937 277.5 11.5 278 12.5
2004-06-11 06:36:23 51°14.553 2°53.917 276.7 11.4 277 12.5
2004-06-11 06:36:29 51°14.554 2°53.887 275.9 11.3 275 12.5
2004-06-11 06:36:34 51°14.555 2°53.862 274.4 11.2 274 12.5
2004-06-11 06:36:39 51°14.556 2°53.837 272.9 11.2 272 12.5
2004-06-11 06:36:43 51°14.556 2°53.818 271.4 11.2 270 12.6
2004-06-11 06:36:49 51°14.556 2°53.788 270.6 11.2 270 12.7
2004-06-11 06:36:54 51°14.556 2°53.763 270.2 11.2 270 12.6
2004-06-11 06:36:59 51°14.556 2°53.739 270.1 11.1 270 12.6
2004-06-11 06:37:04 51°14.556 2°53.714 270 11.1 269 12.6
2004-06-11 06:37:09 51°14.556 2°53.689 269.8 11.1 269 12.6
2004-06-11 06:37:14 51°14.556 2°53.665 269.2 11.1 270 12.5
2004-06-11 06:37:19 51°14.556 2°53.64 270 11.1 270 12.6
2004-06-11 06:37:23 51°14.556 2°53.621 271.4 11.1 272 12.4
2004-06-11 06:37:29 51°14.557 2°53.591 271.8 11.1 272 12.2
2004-06-11 06:37:34 51°14.557 2°53.567 271.5 11.1 271 12.3
2004-06-11 06:37:39 51°14.557 2°53.542 271.1 11.1 270 12.3
2004-06-11 06:37:43 51°14.557 2°53.522 269.9 11.1 268 12.1
2004-06-11 06:37:49 51°14.556 2°53.493 268.5 11.1 267 11.8
2004-06-11 06:37:54 51°14.555 2°53.468 268.1 11.2 267 11.6
2004-06-11 06:37:59 51°14.555 2°53.443 268.8 11.3 269 11.5
2004-06-11 06:38:03 51°14.555 2°53.423 270.6 11.2 270 11.4
2004-06-11 06:38:09 51°14.557 2°53.395 273.9 10.9 280 11.3
2004-06-11 06:38:14 51°14.561 2°53.372 280.7 10.4 284 11.2
2004-06-11 06:38:19 51°14.566 2°53.352 285.3 9.8 290 11.2
2004-06-11 06:38:24 51°14.571 2°53.334 292.2 9.1 294 11.3
2004-06-11 06:38:29 51°14.577 2°53.32 296.1 8.1 305 11.1
2004-06-11 06:38:34 51°14.584 2°53.307 302.9 7.6 309 11.2
2004-06-11 06:38:39 51°14.591 2°53.296 307.3 7.2 314 11.3
2004-06-11 06:38:43 51°14.597 2°53.288 313.2 7 319 11.3
2004-06-11 06:38:49 51°14.606 2°53.278 317.2 6.4 325 11.5
2004-06-11 06:38:54 51°14.613 2°53.272 321.5 5.9 330 11.5
2004-06-11 06:38:58 51°14.619 2°53.268 324.9 5.5 333 11.6
2004-06-11 06:39:03 51°14.625 2°53.264 328.4 5.1 339 11.6
2004-06-11 06:39:09 51°14.633 2°53.26 330.9 4.7 345 11.7
2004-06-11 06:39:14 51°14.639 2°53.258 334.6 4.5 348 11.7
2004-06-11 06:39:19 51°14.645 2°53.256 338.5 4.3 350 11.7
2004-06-11 06:39:22 51°14.648 2°53.256 341.4 4 355 11.7
2004-06-11 06:39:29 51°14.655 2°53.256 344.2 3.8   11.8
2004-06-11 06:39:34 51°14.661 2°53.256 348.2 3.6 2 11.8
2004-06-11 06:39:39 51°14.665 2°53.257 350.6 3.5 6 11.9
2004-06-11 06:39:43 51°14.669 2°53.258 353.9 3.4 8 12
2004-06-11 06:39:49 51°14.675 2°53.26 355.8 3.4 12 12
2004-06-11 06:39:54 51°14.679 2°53.262 358.5 3.4 15 12
2004-06-11 06:39:59 51°14.684 2°53.264 359.5 3.4 15 11.9
2004-06-11 06:40:04 51°14.688 2°53.265 0.4 3.3 15 12.1
2004-06-11 06:40:09 51°14.693 2°53.268 0.1 3.2 17 12.1
2004-06-11 06:40:14 51°14.697 2°53.269 359.3 3.2 15 12.1
2004-06-11 06:40:19 51°14.701 2°53.271 358.7 3.1 17 12.1
2004-06-11 06:40:23 51°14.704 2°53.273 357.4 3 17 12.2
2004-06-11 06:40:29 51°14.709 2°53.275 356.6 3 18 12.1
2004-06-11 06:40:34 51°14.713 2°53.278 356 3 21 12.2
2004-06-11 06:40:39 51°14.717 2°53.28 355.3 3 23 12.2
2004-06-11 06:40:43 51°14.72 2°53.282 354.2 2.9 19 12.1
2004-06-11 06:40:49 51°14.724 2°53.284 353.7 2.8 19 12.2
2004-06-11 06:40:54 51°14.728 2°53.286 352.4 2.8 19 12.3
2004-06-11 06:40:59 51°14.731 2°53.288 351.4 2.8 20 12.1
2004-06-11 06:41:04 51°14.735 2°53.291 350.5 2.8 21 12.1
2004-06-11 06:41:09 51°14.738 2°53.293 349.8 2.7 22 12.3
2004-06-11 06:41:14 51°14.741 2°53.295 349.1 2.6 23 12.4
2004-06-11 06:41:19 51°14.745 2°53.297 348.5 2.5 22 12.5
2004-06-11 06:41:23 51°14.747 2°53.299 347.8 2.5 23 12.6
2004-06-11 06:41:29 51°14.751 2°53.301 347 2.4 24 13
2004-06-11 06:41:35 51°14.754 2°53.304 346.1 2.4 23 12.8
2004-06-11 06:41:40 51°14.757 2°53.305 345.1 2.3 22 13.3
2004-06-11 06:41:44 51°14.76 2°53.307 344.3 2.2 22 12.6
2004-06-11 06:41:50 51°14.763 2°53.309 343.6 2.2 21 13.1
2004-06-11 06:41:54 51°14.766 2°53.311 342.5 2.2 23 13.7
2004-06-11 06:41:59 51°14.768 2°53.313 342 2.2 22 13
2004-06-11 06:42:04 51°14.771 2°53.315 341.4 2.2 24 13.5
2004-06-11 06:42:09 51°14.774 2°53.316 340.5 2.2 26 12.9
2004-06-11 06:42:14 51°14.776 2°53.319 340.4 2.1 26 13.3
2004-06-11 06:42:18 51°14.778 2°53.321 339.7 2.1 28 13.4
2004-06-11 06:42:23 51°14.78 2°53.323 339.3 2.1 28 12.9
2004-06-11 06:42:30 51°14.784 2°53.326 338.8 2.1 28 12.7
2004-06-11 06:42:34 51°14.786 2°53.328 338.8 2 33 12.8
2004-06-11 06:42:39 51°14.788 2°53.331 339.4 2 33 13
2004-06-11 06:42:43 51°14.79 2°53.333 338.9 2 31 13.1
2004-06-11 06:42:49 51°14.793 2°53.335 339.2 2 31 12.8
2004-06-11 06:42:54 51°14.796 2°53.338 339.7 2 37 12.9
2004-06-11 06:42:59 51°14.798 2°53.341 339.9 2 36 13.1
2004-06-11 06:43:03 51°14.8 2°53.343 339.6 2 36 12.9
2004-06-11 06:43:09 51°14.803 2°53.346 340.1 2.1 35 13
2004-06-11 06:43:14 51°14.805 2°53.348 341.1 2 35 12.8
2004-06-11 06:43:19 51°14.807 2°53.351 341.1 2 36 12.9
2004-06-11 06:43:23 51°14.809 2°53.353 341.1 2 34 12.9
2004-06-11 06:43:30 51°14.812 2°53.357 341.6 1.9 34 13.2
2004-06-11 06:43:34 51°14.814 2°53.359 341.2 2 39 13.5
2004-06-11 06:43:39 51°14.816 2°53.361 341.2 1.9 36 13.2
2004-06-11 06:43:43 51°14.818 2°53.363 341.4 2 36 13
2004-06-11 06:43:49 51°14.82 2°53.366 341.1 2 37 13.2
2004-06-11 06:43:54 51°14.823 2°53.369 340.8 1.9 36 13.4
2004-06-11 06:43:59 51°14.825 2°53.372 340.4 1.9 37 13.4
2004-06-11 06:44:03 51°14.826 2°53.374 339.7 1.9 38 13.4
2004-06-11 06:44:09 51°14.829 2°53.377 339.6 1.9 38 13.5
2004-06-11 06:44:14 51°14.831 2°53.38 339.5 1.9 38 13.3
2004-06-11 06:44:19 51°14.833 2°53.382 339.6 1.9 38 13.6
2004-06-11 06:44:23 51°14.834 2°53.384 339.8 1.9 38 13.2
2004-06-11 06:44:29 51°14.837 2°53.388 339.9 1.9 39 13.4
2004-06-11 06:44:34 51°14.839 2°53.39 339.5 1.8 38 13.2
2004-06-11 06:44:39 51°14.841 2°53.393 338.9 1.8 38 13.3
2004-06-11 06:44:43 51°14.842 2°53.395 338.3 1.9 40 13.4
2004-06-11 06:44:49 51°14.845 2°53.398 337.9 1.9 38 13.3
2004-06-11 06:44:54 51°14.847 2°53.401 337.2 1.9 40 13.6
2004-06-11 06:44:59 51°14.849 2°53.403 336.7 1.9 40 13.4
2004-06-11 06:45:03 51°14.85 2°53.405 336 1.9 40 13.4
2004-06-11 06:45:09 51°14.853 2°53.408 335.8 1.9 38 13.3
2004-06-11 06:45:14 51°14.854 2°53.411 335.4 1.8 39 13.5
2004-06-11 06:45:19 51°14.856 2°53.414 335.4 1.9 41 13.3
2004-06-11 06:45:23 51°14.858 2°53.416 335.4 1.9 42 13.3
2004-06-11 06:45:29 51°14.86 2°53.42 335.4 1.9 43 13.2
2004-06-11 06:45:34 51°14.862 2°53.423 335.7 1.8 45 13.2
2004-06-11 06:45:39 51°14.864 2°53.425 336 1.8 43 13.4
2004-06-11 06:45:43 51°14.865 2°53.428 336.1 1.8 44 13.3
2004-06-11 06:45:49 51°14.868 2°53.431 336.4 2 45 13.2
2004-06-11 06:45:54 51°14.87 2°53.434 336.3 2 44 13.1
2004-06-11 06:45:59 51°14.872 2°53.437 336.3 2 42 13.2
2004-06-11 06:46:03 51°14.873 2°53.439 336.2 1.9 43 13
2004-06-11 06:46:09 51°14.875 2°53.443 336 1.9 45 13
2004-06-11 06:46:14 51°14.877 2°53.445 335.7 1.9 45 12.8
2004-06-11 06:46:19 51°14.879 2°53.449 335.8 1.9 44 12.9
2004-06-11 06:46:23 51°14.88 2°53.451 335.6 1.9 44 12.8
2004-06-11 06:46:29 51°14.883 2°53.455 336 2 47 12.7
2004-06-11 06:46:33 51°14.884 2°53.457 336.1 1.9 46 12.7
2004-06-11 06:46:39 51°14.887 2°53.46 336.2 1.8 44 12.7
2004-06-11 06:46:43 51°14.888 2°53.462 336.3 1.7 42 12.7
2004-06-11 06:46:50 51°14.891 2°53.467 336.3 1.9 44 12.7
2004-06-11 06:46:54 51°14.892 2°53.469 335.9 1.9 44 12.8
2004-06-11 06:46:59 51°14.894 2°53.472 335.4 2 46 12.8
2004-06-11 06:47:03 51°14.895 2°53.474 335.3 1.8 43 12.7
2004-06-11 06:47:09 51°14.898 2°53.477 335.2 1.9 45 12.7
2004-06-11 06:47:14 51°14.9 2°53.48 335.2 1.9 43 12.6
2004-06-11 06:47:19 51°14.902 2°53.483 334.9 1.9 41 12.6
2004-06-11 06:47:23 51°14.903 2°53.485 334.7 2 35 12.7
2004-06-11 06:47:27 51°14.905 2°53.487 333.4 2.1 25 12.7
2004-06-11 06:47:34 51°14.91 2°53.489 332.4 2.4 15 12.4
2004-06-11 06:47:39 51°14.913 2°53.49 330.2 2.6 6 12.5
2004-06-11 06:47:44 51°14.918 2°53.489 326.4 2.8 357 12.7
2004-06-11 06:47:50 51°14.923 2°53.486 321.7 3.3 344 12.5
2004-06-11 06:47:55 51°14.927 2°53.482 317 3.6 333 12.5
2004-06-11 06:48:00 51°14.932 2°53.477 311.7 3.9 325 12.6
2004-06-11 06:48:03 51°14.934 2°53.473 306.1 4.2 316 12.6
2004-06-11 06:48:10 51°14.939 2°53.462 300.6 4.6 307 12.7
2004-06-11 06:48:15 51°14.943 2°53.453 295.3 4.9 300 12.7
2004-06-11 06:48:19 51°14.945 2°53.444 290.9 5.4 295 12.7
2004-06-11 06:48:22 51°14.946 2°53.436 285.6 5.9 289 12.6
2004-06-11 06:48:29 51°14.948 2°53.417 279.9 6.7 276 12.6
2004-06-11 06:48:34 51°14.948 2°53.401 274.3 7 270 12.7
2004-06-11 06:48:39 51°14.947 2°53.385 268.7 7.3 266 12.7
2004-06-11 06:48:43 51°14.945 2°53.372 263.2 7.7 257 12.7
2004-06-11 06:48:49 51°14.941 2°53.351 258.3 8.2 253 12.7
2004-06-11 06:48:54 51°14.938 2°53.333 256.1 8.5 254 12.8
2004-06-11 06:48:59 51°14.934 2°53.315 256.3 8.7 253 12.7
2004-06-11 06:49:04 51°14.931 2°53.295 258 8.9 255 12.8
2004-06-11 06:49:09 51°14.928 2°53.276 259.1 9.2 257 12.8
2004-06-11 06:49:14 51°14.926 2°53.256 260.6 9.3 259 13.1
2004-06-11 06:49:19 51°14.924 2°53.235 262.3 9.5 260 13.1
2004-06-11 06:49:23 51°14.922 2°53.218 263.2 9.7 262 13.2
2004-06-11 06:49:29 51°14.92 2°53.192 264.4 9.8 263 13.1
2004-06-11 06:49:34 51°14.919 2°53.171 265.8 9.9 264 13.2
2004-06-11 06:49:39 51°14.917 2°53.149 266.8 10 265 12.9
2004-06-11 06:49:43 51°14.916 2°53.131 267.3 10 265 12.9
2004-06-11 06:49:49 51°14.915 2°53.104 267.6 10.1 265 12.9
2004-06-11 06:49:54 51°14.914 2°53.082 268 10.2 266 12.8
2004-06-11 06:49:59 51°14.913 2°53.06 268.3 10.2 266 12.8
2004-06-11 06:50:03 51°14.912 2°53.042 268.4 10.3 265 12.8
2004-06-11 06:50:09 51°14.91 2°53.014 267.9 10.3 265 12.9
2004-06-11 06:50:14 51°14.909 2°52.992 267.6 10.3 265 12.8
2004-06-11 06:50:19 51°14.908 2°52.969 267.2 10.3 264 13
2004-06-11 06:50:24 51°14.906 2°52.946 267 10.3 265 13.1
2004-06-11 06:50:29 51°14.905 2°52.924 267 10.4 265 13.6
2004-06-11 06:50:34 51°14.904 2°52.901 267.2 10.3 265 13.2
2004-06-11 06:50:38 51°14.903 2°52.883 267.4 10.3 266 12.8
2004-06-11 06:50:43 51°14.902 2°52.86 267.8 10.2 265 13
2004-06-11 06:50:49 51°14.901 2°52.833 267.8 10.3 266 12.8
2004-06-11 06:50:54 51°14.9 2°52.811 267.8 10.3 265 12.8
2004-06-11 06:50:59 51°14.899 2°52.788 267.8 10.3 266 12.7
2004-06-11 06:51:03 51°14.898 2°52.77 267.9 10.2 265 12.6
2004-06-11 06:51:09 51°14.896 2°52.743 267.8 10.3 266 12.6
2004-06-11 06:51:14 51°14.895 2°52.721 267.7 10.3 265 12.6
2004-06-11 06:51:19 51°14.894 2°52.698 267.5 10.3 265 12.6
2004-06-11 06:51:23 51°14.893 2°52.68 267.4 10.3 265 12.6
2004-06-11 06:51:29 51°14.892 2°52.653 267.2 10.3 265 12.7
2004-06-11 06:51:34 51°14.89 2°52.63 267 10.3 264 12.6
2004-06-11 06:51:39 51°14.889 2°52.608 266.9 10.3 265 12.6
2004-06-11 06:51:43 51°14.888 2°52.589 266.9 10.3 265 12.6
2004-06-11 06:51:49 51°14.886 2°52.562 267 10.3 265 12.6
2004-06-11 06:51:54 51°14.885 2°52.54 267.2 10.3 265 12.6
2004-06-11 06:51:59 51°14.884 2°52.517 267.2 10.3 265 12.6
2004-06-11 06:52:03 51°14.883 2°52.499 267.2 10.3 265 12.6
2004-06-11 06:52:09 51°14.881 2°52.472 267.2 10.3 265 12.6
2004-06-11 06:52:14 51°14.88 2°52.449 267.4 10.3 265 12.5
2004-06-11 06:52:19 51°14.879 2°52.426 267.6 10.3 265 12.6
2004-06-11 06:52:23 51°14.878 2°52.408 267.9 10.4 266 12.7
2004-06-11 06:52:29 51°14.877 2°52.38 268 10.3 266 12.7
2004-06-11 06:52:34 51°14.876 2°52.358 267.7 10.3 265 12.7
2004-06-11 06:52:39 51°14.874 2°52.335 267.5 10.3 266 12.7
2004-06-11 06:52:44 51°14.873 2°52.312 267.4 10.3 265 12.8
2004-06-11 06:52:49 51°14.872 2°52.29 267.4 10.3 265 12.7
2004-06-11 06:52:54 51°14.871 2°52.267 267.1 10.3 265 12.8
2004-06-11 06:52:59 51°14.869 2°52.244 267.1 10.3 265 12.8
2004-06-11 06:53:03 51°14.868 2°52.226 267 10.3 265 12.8
2004-06-11 06:53:09 51°14.867 2°52.199 267.3 10.4 265 12.8
2004-06-11 06:53:14 51°14.866 2°52.176 267.4 10.4 266 12.8
2004-06-11 06:53:19 51°14.865 2°52.153 267.8 10.4 265 12.9
2004-06-11 06:53:23 51°14.864 2°52.135 267.8 10.4 266 12.8
2004-06-11 06:53:29 51°14.863 2°52.107 267.7 10.4 265 12.9
2004-06-11 06:53:34 51°14.862 2°52.084 267.7 10.4 265 12.9
2004-06-11 06:53:39 51°14.86 2°52.062 267.4 10.4 265 12.9
2004-06-11 06:53:43 51°14.859 2°52.043 267.4 10.4 265 12.9
2004-06-11 06:53:49 51°14.858 2°52.016 267.3 10.4 265 12.9
2004-06-11 06:53:54 51°14.857 2°51.993 267.3 10.4 265 12.9
2004-06-11 06:53:59 51°14.855 2°51.97 267.5 10.4 265 13
2004-06-11 06:54:04 51°14.854 2°51.947 267.5 10.4 265 13
2004-06-11 06:54:09 51°14.853 2°51.924 267.6 10.4 265 13
2004-06-11 06:54:13 51°14.852 2°51.906 267.6 10.3 265 13.1
2004-06-11 06:54:18 51°14.851 2°51.883 267.3 10.4 265 13
2004-06-11 06:54:23 51°14.85 2°51.86 267.1 10.4 265 13.1
2004-06-11 06:54:29 51°14.848 2°51.833 267.1 10.4 265 13.2
2004-06-11 06:54:34 51°14.847 2°51.81 267.3 10.4 265 13.1
2004-06-11 06:54:39 51°14.846 2°51.787 267.6 10.4 266 13.2
2004-06-11 06:54:43 51°14.845 2°51.769 267.8 10.4 265 13.2
2004-06-11 06:54:49 51°14.844 2°51.741 268 10.4 266 13.2
2004-06-11 06:54:54 51°14.843 2°51.718 267.9 10.4 266 13.2
2004-06-11 06:54:59 51°14.842 2°51.696 267.9 10.4 266 13.3
2004-06-11 06:55:03 51°14.841 2°51.677 267.8 10.4 265 13.3
2004-06-11 06:55:09 51°14.839 2°51.65 267.2 10.2 264 13.3
2004-06-11 06:55:13 51°14.838 2°51.633 266.8 9.5 264 13.4
2004-06-11 06:55:18 51°14.837 2°51.614 265.2 8.7 262 13.3
2004-06-11 06:55:25 51°14.834 2°51.591 262.1 7.5 258 13.4
2004-06-11 06:55:29 51°14.832 2°51.58 258.9 6.5 254 13.4
2004-06-11 06:55:34 51°14.829 2°51.567 255.9 6 251 13.4
2004-06-11 06:55:39 51°14.826 2°51.556 253.2 5.5 248 13.5
2004-06-11 06:55:43 51°14.823 2°51.548 249.3 5 243 13.6
2004-06-11 06:55:49 51°14.819 2°51.538 246.8 4.7 240 13.5
2004-06-11 06:55:54 51°14.816 2°51.53 243.1 4.3 236 13.5
2004-06-11 06:55:59 51°14.813 2°51.523 240.4 4.1 233 13.6
2004-06-11 06:56:04 51°14.809 2°51.516 238.2 3.9 231 13.5
2004-06-11 06:56:09 51°14.806 2°51.511 236.2 3.7 228 13.5
2004-06-11 06:56:14 51°14.802 2°51.506 234.7 3.4 222 13.5
2004-06-11 06:56:19 51°14.799 2°51.501 233.4 3.3 222 13.5
2004-06-11 06:56:23 51°14.796 2°51.497 232.2 3.1 219 13.5
2004-06-11 06:56:29 51°14.792 2°51.493 231.6 3 217 13.4
2004-06-11 06:56:34 51°14.789 2°51.489 231 2.9 216 13.5
2004-06-11 06:56:39 51°14.786 2°51.486 230.7 2.7 215 13.5
2004-06-11 06:56:44 51°14.783 2°51.482 230 2.6 213 13.4
2004-06-11 06:56:49 51°14.78 2°51.479 229.7 2.5 213 13.4
2004-06-11 06:56:53 51°14.777 2°51.477 229.3 2.4 212 13.4
2004-06-11 06:56:59 51°14.774 2°51.474 229.3 2.3 212 13.4
2004-06-11 06:57:04 51°14.772 2°51.472 229.3 2.3 206 13.4
2004-06-11 06:57:09 51°14.769 2°51.47 229.3 2.1 205 13.4
2004-06-11 06:57:14 51°14.766 2°51.468 229 2 207 13.4
2004-06-11 06:57:19 51°14.764 2°51.465 229 2 208 13.4
2004-06-11 06:57:23 51°14.762 2°51.464 229.3 1.8 207 13.4
2004-06-11 06:57:29 51°14.76 2°51.462 229.5 1.8 203 13.4
2004-06-11 06:57:34 51°14.757 2°51.46 230.3 1.7 207 13.4
2004-06-11 06:57:39 51°14.755 2°51.459 230.6 1.6 205 13.4
2004-06-11 06:57:43 51°14.754 2°51.457 231.4 1.5 207 13.3
2004-06-11 06:57:49 51°14.752 2°51.456 231.8 1.5 207 13.4
2004-06-11 06:57:54 51°14.75 2°51.454 232.7 1.4 206 13.3
2004-06-11 06:57:59 51°14.748 2°51.453 233.3 1.4 210 13.4
2004-06-11 06:58:04 51°14.746 2°51.451 233.7 1.6 207 13.3
2004-06-11 06:58:09 51°14.744 2°51.449 234.2 1.6 213 13.3
2004-06-11 06:58:14 51°14.742 2°51.446 235.4 1.7 218 13.4
2004-06-11 06:58:19 51°14.74 2°51.444 236.4 1.7 218 13.3
2004-06-11 06:58:24 51°14.738 2°51.441 237.3 1.8 221 13.3
2004-06-11 06:58:29 51°14.737 2°51.439 238.6 1.8 226 13.3
2004-06-11 06:58:34 51°14.735 2°51.435 240.7 1.9 230 13.3
2004-06-11 06:58:39 51°14.733 2°51.432 242.1 2 234 13.3
2004-06-11 06:58:43 51°14.732 2°51.429 244.2 2.1 237 13.2
2004-06-11 06:58:49 51°14.731 2°51.423 247 2.2 244 13.3
2004-06-11 06:58:54 51°14.729 2°51.419 249.3 2.2 246 13.3
2004-06-11 06:58:59 51°14.728 2°51.414 251.2 2.3 250 13.3
2004-06-11 06:59:03 51°14.727 2°51.41 253.8 2.4 253 13.2
2004-06-11 06:59:09 51°14.727 2°51.404 256.2 2.4 258 13.2
2004-06-11 06:59:14 51°14.726 2°51.398 258.2 2.5 261 13.3
2004-06-11 06:59:19 51°14.726 2°51.393 259.2 2.5 261 13.2
2004-06-11 06:59:25 51°14.725 2°51.386 259.9 2.6 264 13.2
2004-06-11 06:59:29 51°14.725 2°51.381 260.1 2.6 262 13.3
2004-06-11 06:59:34 51°14.724 2°51.375 259.9 2.7 263 13.4
2004-06-11 06:59:39 51°14.724 2°51.369 259.3 2.7 260 13.3
2004-06-11 06:59:43 51°14.723 2°51.365 258.1 2.7 260 13.4
2004-06-11 06:59:49 51°14.722 2°51.357 256.9 2.7 256 13.4
2004-06-11 06:59:54 51°14.721 2°51.351 255.8 2.7 256 13.4
2004-06-11 06:59:59 51°14.72 2°51.346 254.7 2.8 255 13.4
2004-06-11 07:00:03 51°14.719 2°51.341 253.4 2.8 253 13.4
2004-06-11 07:00:09 51°14.718 2°51.334 252.6 2.8 253 13.4
2004-06-11 07:00:14 51°14.716 2°51.328 251.3 2.8 249 13.3
2004-06-11 07:00:19 51°14.715 2°51.323 250 2.8 248 13.4
2004-06-11 07:00:23 51°14.713 2°51.318 248.6 2.9 246 13.4
2004-06-11 07:00:29 51°14.711 2°51.311 247 2.9 243 13.4
2004-06-11 07:00:34 51°14.709 2°51.305 245.9 2.9 242 13.4
2004-06-11 07:00:39 51°14.707 2°51.3 245 2.9 240 13.5
2004-06-11 07:00:43 51°14.705 2°51.296 244 2.9 236 13.4
2004-06-11 07:00:49 51°14.703 2°51.289 242.5 2.8 235 13.5
2004-06-11 07:00:54 51°14.7 2°51.284 242 2.8 234 13.4
2004-06-11 07:00:59 51°14.698 2°51.279 241.1 2.7 231 13.4
2004-06-11 07:01:04 51°14.696 2°51.275 239.9 2.7 231 13.4
2004-06-11 07:01:08 51°14.694 2°51.272 239.4 2.7 231 13.4
2004-06-11 07:01:15 51°14.691 2°51.265 239.4 2.6 230 13.4
2004-06-11 07:01:18 51°14.689 2°51.263 239.5 2.6 232 13.4
2004-06-11 07:01:25 51°14.686 2°51.257 240 2.6 231 13.4
2004-06-11 07:01:30 51°14.684 2°51.252 240.7 2.5 233 13.4
2004-06-11 07:01:34 51°14.682 2°51.249 241.3 2.5 231 13.4
2004-06-11 07:01:40 51°14.68 2°51.244 241.7 2.4 233 13.3
2004-06-11 07:01:43 51°14.679 2°51.241 242.2 2.4 232 13.4
2004-06-11 07:01:49 51°14.676 2°51.236 242.6 2.3 233 13.4
2004-06-11 07:01:54 51°14.675 2°51.232 243.6 2.3 236 13.3
2004-06-11 07:01:59 51°14.673 2°51.228 244 2.2 235 13.4
2004-06-11 07:02:03 51°14.672 2°51.225 244.6 2.2 237 13.3
2004-06-11 07:02:09 51°14.67 2°51.22 244.9 2.2 236 13.4
2004-06-11 07:02:14 51°14.668 2°51.216 245.4 2.2 240 13.4
2004-06-11 07:02:19 51°14.667 2°51.211 246.2 2.2 239 13.3
2004-06-11 07:02:25 51°14.665 2°51.206 246.7 2.2 242 13.4
2004-06-11 07:02:29 51°14.664 2°51.203 247.3 2.2 241 13.3
2004-06-11 07:02:34 51°14.662 2°51.198 247.9 2.2 244 13.4
2004-06-11 07:02:39 51°14.661 2°51.194 248.5 2.2 243 13.4
2004-06-11 07:02:43 51°14.66 2°51.19 249.2 2.2 246 13.4
2004-06-11 07:02:49 51°14.658 2°51.185 249.6 2.2 245 13.4
2004-06-11 07:02:54 51°14.657 2°51.18 250.6 2.2 249 13.4
2004-06-11 07:02:59 51°14.656 2°51.175 250.9 2.2 247 13.3
2004-06-11 07:03:03 51°14.655 2°51.172 251.6 2.2 251 13.4
2004-06-11 07:03:09 51°14.654 2°51.166 252.1 2.3 251 13.3
2004-06-11 07:03:14 51°14.653 2°51.161 252.5 2.3 254 13.3
2004-06-11 07:03:19 51°14.652 2°51.156 253.2 2.3 253 13.3
2004-06-11 07:03:23 51°14.652 2°51.153 254 2.3 255 13.3
2004-06-11 07:03:29 51°14.651 2°51.147 254.4 2.3 255 13.3
2004-06-11 07:03:34 51°14.65 2°51.142 254.7 2.3 253 13.3
2004-06-11 07:03:39 51°14.649 2°51.137 255 2.3 257 13.3
2004-06-11 07:03:43 51°14.649 2°51.132 255.3 2.3 256 13.4
2004-06-11 07:03:47 51°14.648 2°51.128 255.8 2.3 257 13.3
2004-06-11 07:03:54 51°14.647 2°51.121 256.1 2.3 259 13.3
2004-06-11 07:03:59 51°14.646 2°51.116 256.3 2.3 258 13.3
2004-06-11 07:04:03 51°14.646 2°51.112 256.7 2.3 258 13.3
2004-06-11 07:04:09 51°14.645 2°51.106 256.7 2.4 260 13.3
2004-06-11 07:04:14 51°14.644 2°51.101 256.6 2.4 257 13.3
2004-06-11 07:04:19 51°14.644 2°51.096 256.3 2.4 259 13.3
2004-06-11 07:04:23 51°14.643 2°51.092 256.1 2.4 257 13.3
2004-06-11 07:04:29 51°14.642 2°51.086 255.9 2.3 257 13.3
2004-06-11 07:04:34 51°14.642 2°51.081 255.6 2.3 257 13.3
2004-06-11 07:04:39 51°14.641 2°51.076 255.3 2.3 257 13.4
2004-06-11 07:04:43 51°14.64 2°51.072 255 2.4 257 13.3
2004-06-11 07:04:49 51°14.639 2°51.066 254.9 2.4 255 13.3
2004-06-11 07:04:54 51°14.638 2°51.06 254.6 2.4 256 13.3
2004-06-11 07:04:59 51°14.638 2°51.055 254.3 2.4 254 13.3
2004-06-11 07:05:03 51°14.637 2°51.051 254.1 2.4 255 13.3
2004-06-11 07:05:09 51°14.636 2°51.045 254 2.4 255 13.3
2004-06-11 07:05:13 51°14.635 2°51.041 254 2.3 253 13.3
2004-06-11 07:05:18 51°14.634 2°51.036 253.7 2.3 254 13.3
2004-06-11 07:05:25 51°14.633 2°51.03 253.3 2.3 253 13.3
2004-06-11 07:05:29 51°14.632 2°51.026 253.3 2.3 254 13.3
2004-06-11 07:05:34 51°14.631 2°51.021 253.3 2.3 253 13.3
2004-06-11 07:05:39 51°14.63 2°51.016 253.3 2.3 253 13.3
2004-06-11 07:05:43 51°14.63 2°51.012 253.3 2.3 253 13.4
2004-06-11 07:05:48 51°14.628 2°51.009 253.3 2.2 250 13.3
2004-06-11 07:05:54 51°14.627 2°51.004 253.3 2.2 253 13.3
2004-06-11 07:05:59 51°14.626 2°51 253.2 2.1 250 13.4
2004-06-11 07:06:03 51°14.626 2°50.996 253 2.2 253 13.4
2004-06-11 07:06:09 51°14.625 2°50.991 252.8 2.1 251 13.3
2004-06-11 07:06:14 51°14.624 2°50.986 252.5 2.2 252 13.4
2004-06-11 07:06:18 51°14.623 2°50.982 252.5 2.2 252 13.4
2004-06-11 07:06:25 51°14.622 2°50.976 252.5 2.2 254 13.3
2004-06-11 07:06:30 51°14.621 2°50.971 253.1 2.2 253 13.3
2004-06-11 07:06:34 51°14.62 2°50.967 253.3 2.1 255 13.4
2004-06-11 07:06:38 51°14.619 2°50.964 253.4 2.1 253 13.4
2004-06-11 07:06:43 51°14.619 2°50.959 253.4 2.1 255 13.4
2004-06-11 07:06:49 51°14.618 2°50.954 253.6 2.2 253 13.4
2004-06-11 07:06:54 51°14.617 2°50.948 253.6 2.2 255 13.4
2004-06-11 07:06:59 51°14.616 2°50.943 253.7 2.2 255 13.4
2004-06-11 07:07:03 51°14.615 2°50.939 253.7 2.1 254 13.4
2004-06-11 07:07:09 51°14.614 2°50.934 253.7 2.2 255 13.3
2004-06-11 07:07:13 51°14.614 2°50.93 253.8 2.1 254 13.4
2004-06-11 07:07:19 51°14.613 2°50.925 253.9 2.1 254 13.4
2004-06-11 07:07:23 51°14.612 2°50.921 254 2.2 253 13.4
2004-06-11 07:07:29 51°14.611 2°50.916 253.8 2.2 253 13.4
2004-06-11 07:07:34 51°14.61 2°50.911 253.9 2.1 252 13.4
2004-06-11 07:07:39 51°14.61 2°50.907 254 2.1 257 13.5
2004-06-11 07:07:43 51°14.609 2°50.903 254.1 2.1 253 13.4
2004-06-11 07:07:49 51°14.608 2°50.897 254.1 2.2 258 13.4
2004-06-11 07:07:54 51°14.607 2°50.893 254.3 2.2 255 13.5
2004-06-11 07:07:59 51°14.607 2°50.888 254.6 2.2 256 13.5
2004-06-11 07:08:03 51°14.606 2°50.885 254.6 2.1 254 13.5
2004-06-11 07:08:09 51°14.605 2°50.879 254.1 2.1 254 13.5
2004-06-11 07:08:14 51°14.604 2°50.875 253.7 2.1 254 13.4
2004-06-11 07:08:19 51°14.604 2°50.871 253.1 2.1 253 13.4
2004-06-11 07:08:23 51°14.603 2°50.867 252.5 2 252 13.3
2004-06-11 07:08:29 51°14.602 2°50.862 252.3 2.1 252 13.5
2004-06-11 07:08:33 51°14.601 2°50.858 252 2.1 252 13.5
2004-06-11 07:08:39 51°14.6 2°50.853 251.6 2.1 251 13.4
2004-06-11 07:08:43 51°14.599 2°50.85 251.3 2 250 13.4
2004-06-11 07:08:50 51°14.598 2°50.844 251.1 2 248 13.5
2004-06-11 07:08:54 51°14.597 2°50.841 250.9 2 250 13.5
2004-06-11 07:08:59 51°14.596 2°50.837 250.4 2 247 13.4
2004-06-11 07:09:03 51°14.595 2°50.833 249.7 2 248 13.5
2004-06-11 07:09:09 51°14.594 2°50.828 249.4 2.1 247 13.5
2004-06-11 07:09:14 51°14.593 2°50.824 249.4 2.1 249 13.5
2004-06-11 07:09:18 51°14.592 2°50.821 249.1 2 245 13.5
2004-06-11 07:09:24 51°14.59 2°50.816 249 2.1 248 13.4
2004-06-11 07:09:30 51°14.589 2°50.811 248.9 2.1 246 13.5
2004-06-11 07:09:34 51°14.588 2°50.808 248.8 2.1 247 13.5
2004-06-11 07:09:40 51°14.586 2°50.803 248.7 2 245 13.5
2004-06-11 07:09:44 51°14.585 2°50.799 248.4 2 244 13.4
2004-06-11 07:09:50 51°14.584 2°50.794 248.3 2.1 244 13.5
2004-06-11 07:09:54 51°14.583 2°50.791 248.2 2.1 246 13.4
2004-06-11 07:09:59 51°14.582 2°50.787 248.5 2.1 245 13.5
2004-06-11 07:10:05 51°14.58 2°50.782 249 2.1 248 13.5
2004-06-11 07:10:09 51°14.58 2°50.779 249.4 2.1 248 13.6
2004-06-11 07:10:15 51°14.578 2°50.774 250.2 2.1 247 13.5
2004-06-11 07:10:19 51°14.577 2°50.77 250.2 2.1 248 13.4
2004-06-11 07:10:23 51°14.577 2°50.767 250.4 2 250 13.4
2004-06-11 07:10:30 51°14.575 2°50.761 250.9 2.1 250 13.4
2004-06-11 07:10:34 51°14.575 2°50.757 251.4 2.1 252 13.4
2004-06-11 07:10:39 51°14.574 2°50.753 252.1 2.1 252 13.5
2004-06-11 07:10:43 51°14.573 2°50.75 252.7 2.1 254 13.5
2004-06-11 07:10:49 51°14.572 2°50.744 253.2 2.1 256 13.5
2004-06-11 07:10:54 51°14.571 2°50.74 253.8 2.1 252 13.5
2004-06-11 07:10:59 51°14.571 2°50.735 254.4 2.1 257 13.5
2004-06-11 07:11:03 51°14.57 2°50.731 254.4 2.1 253 13.5
2004-06-11 07:11:09 51°14.569 2°50.726 254.6 2.1 256 13.4
2004-06-11 07:11:14 51°14.568 2°50.721 254.5 2.1 257 13.5
2004-06-11 07:11:19 51°14.568 2°50.717 254.7 2.1 258 13.5
2004-06-11 07:11:23 51°14.567 2°50.713 254.6 2.2 259 13.6
2004-06-11 07:11:30 51°14.566 2°50.707 254.7 2.1 255 13.5
2004-06-11 07:11:34 51°14.566 2°50.703 254.6 2.1 257 13.5
2004-06-11 07:11:39 51°14.565 2°50.698 254.7 2.1 256 13.5
2004-06-11 07:11:42 51°14.565 2°50.696 254.5 2.2 257 13.5
2004-06-11 07:11:47 51°14.564 2°50.691 254.3 2.2 256 13.5
2004-06-11 07:11:54 51°14.563 2°50.685 254.2 2.2 257 13.6
2004-06-11 07:11:59 51°14.562 2°50.68 254.1 2.2 256 13.5
2004-06-11 07:12:03 51°14.562 2°50.676 254.2 2.2 257 13.5
2004-06-11 07:12:09 51°14.561 2°50.671 254.3 2.1 258 13.6
2004-06-11 07:12:14 51°14.561 2°50.666 254.4 2.1 257 13.5
2004-06-11 07:12:19 51°14.56 2°50.662 254.4 2.1 259 13.6
2004-06-11 07:12:23 51°14.56 2°50.658 254.6 2.1 257 13.5
2004-06-11 07:12:28 51°14.559 2°50.653 254.7 2.1 255 13.5
2004-06-11 07:12:34 51°14.558 2°50.648 254.6 2.1 257 13.5
2004-06-11 07:12:39 51°14.558 2°50.644 254.1 2.1 256 13.5
2004-06-11 07:12:44 51°14.557 2°50.639 253.8 2 257 13.5
2004-06-11 07:12:49 51°14.556 2°50.635 253.6 2.1 257 13.5
2004-06-11 07:12:54 51°14.555 2°50.631 253.3 2.1 254 13.5
2004-06-11 07:12:59 51°14.555 2°50.626 253.1 2.1 256 13.4
2004-06-11 07:13:03 51°14.554 2°50.623 252.7 2 252 13.5
2004-06-11 07:13:09 51°14.553 2°50.618 252.5 2.1 254 13.6
2004-06-11 07:13:13 51°14.552 2°50.614 252.1 2 250 13.5
2004-06-11 07:13:19 51°14.551 2°50.609 251.7 2.1 253 13.6
2004-06-11 07:13:23 51°14.55 2°50.606 251.5 2.1 250 13.6
2004-06-11 07:13:30 51°14.549 2°50.599 251.6 2.1 255 13.6
2004-06-11 07:13:34 51°14.548 2°50.596 251.8 2.1 249 13.5
2004-06-11 07:13:39 51°14.548 2°50.592 251.8 2.1 255 13.6
2004-06-11 07:13:45 51°14.547 2°50.586 252.1 2 249 13.6
2004-06-11 07:13:49 51°14.546 2°50.583 252.1 2.1 253 13.6
2004-06-11 07:13:54 51°14.545 2°50.579 251.8 2.1 251 13.5
2004-06-11 07:13:59 51°14.544 2°50.574 251.6 2.1 253 13.5
2004-06-11 07:14:03 51°14.543 2°50.571 251.4 2.1 251 13.5
2004-06-11 07:14:09 51°14.542 2°50.566 251.4 2.1 253 13.6
2004-06-11 07:14:14 51°14.541 2°50.561 251.2 2 252 13.5
2004-06-11 07:14:19 51°14.54 2°50.557 251.2 2.1 252 13.6
2004-06-11 07:14:23 51°14.54 2°50.553 251.3 2.1 252 13.5
2004-06-11 07:14:29 51°14.539 2°50.548 251.2 2 251 13.5
2004-06-11 07:14:34 51°14.538 2°50.544 251.1 2 249 13.5
2004-06-11 07:14:39 51°14.537 2°50.54 251.2 2.1 253 13.5
2004-06-11 07:14:43 51°14.536 2°50.536 251.1 2 249 13.5
2004-06-11 07:14:49 51°14.535 2°50.531 251.3 2.1 252 13.5
2004-06-11 07:14:54 51°14.534 2°50.527 251 2.1 249 13.6
2004-06-11 07:14:59 51°14.533 2°50.523 250.9 2.1 250 13.6
2004-06-11 07:15:03 51°14.532 2°50.519 250.6 2 249 13.6
2004-06-11 07:15:09 51°14.531 2°50.514 250.8 2 250 13.5
2004-06-11 07:15:13 51°14.53 2°50.511 250.8 2 248 13.5
2004-06-11 07:15:19 51°14.529 2°50.506 250.6 2 249 13.6
2004-06-11 07:15:23 51°14.528 2°50.502 250.5 2 248 13.5
2004-06-11 07:15:29 51°14.526 2°50.497 250.4 2.1 247 13.5
2004-06-11 07:15:34 51°14.525 2°50.493 250.4 2.1 248 13.6
2004-06-11 07:15:38 51°14.524 2°50.49 250.4 2.1 248 13.6
2004-06-11 07:15:43 51°14.523 2°50.485 250.4 2.2 248 13.6
2004-06-11 07:15:49 51°14.522 2°50.48 250.5 2.1 250 13.5
2004-06-11 07:15:54 51°14.521 2°50.475 250.8 2.2 249 13.6
2004-06-11 07:15:59 51°14.52 2°50.471 251 2.2 251 13.6
2004-06-11 07:16:03 51°14.519 2°50.467 251.1 2.2 248 13.5
2004-06-11 07:16:10 51°14.517 2°50.461 250.9 2.1 247 13.5
2004-06-11 07:16:13 51°14.517 2°50.459 250.3 2.1 245 13.5
2004-06-11 07:16:18 51°14.516 2°50.454 249.7 2.1 248 13.6
2004-06-11 07:16:23 51°14.514 2°50.45 249.1 2.1 244 13.5
2004-06-11 07:16:29 51°14.513 2°50.445 248.9 2.2 248 13.6
2004-06-11 07:16:34 51°14.511 2°50.441 248.9 2.2 246 13.6
2004-06-11 07:16:39 51°14.51 2°50.436 248.4 2.2 246 13.6
2004-06-11 07:16:43 51°14.509 2°50.432 248.2 2.2 245 13.6
2004-06-11 07:16:49 51°14.507 2°50.427 248.1 2.3 247 13.6
2004-06-11 07:16:54 51°14.506 2°50.422 247.9 2.3 243 13.5
2004-06-11 07:16:59 51°14.505 2°50.418 247.6 2.3 244 13.5
2004-06-11 07:17:03 51°14.503 2°50.414 247.2 2.3 241 13.5
2004-06-11 07:17:09 51°14.502 2°50.409 246.5 2.2 242 13.5
2004-06-11 07:17:13 51°14.5 2°50.406 246.3 2.2 240 13.5
2004-06-11 07:17:19 51°14.499 2°50.4 246 2.2 243 13.6
2004-06-11 07:17:23 51°14.497 2°50.397 246 2.2 240 13.6
2004-06-11 07:17:30 51°14.495 2°50.391 246 2.2 241 13.5
2004-06-11 07:17:34 51°14.494 2°50.387 245.9 2.2 240 13.5
2004-06-11 07:17:39 51°14.493 2°50.383 245.7 2.2 241 13.6
2004-06-11 07:17:43 51°14.491 2°50.379 245.9 2.2 241 13.5
2004-06-11 07:17:49 51°14.49 2°50.374 245.8 2.2 240 13.4
2004-06-11 07:17:54 51°14.488 2°50.37 245.4 2.2 239 13.4
2004-06-11 07:17:59 51°14.487 2°50.366 245.3 2.2 242 13.5
2004-06-11 07:18:05 51°14.485 2°50.361 245.4 2.2 239 13.5
2004-06-11 07:18:09 51°14.484 2°50.357 245.5 2.2 241 13.5
2004-06-11 07:18:14 51°14.482 2°50.353 245.6 2.1 243 13.4
2004-06-11 07:18:19 51°14.481 2°50.349 246 2.1 240 13.6
2004-06-11 07:18:23 51°14.48 2°50.346 246 2.1 242 13.5
2004-06-11 07:18:29 51°14.478 2°50.341 245.8 2.1 238 13.5
2004-06-11 07:18:34 51°14.477 2°50.337 245.5 2.1 244 13.5
2004-06-11 07:18:38 51°14.475 2°50.334 245.7 2.1 239 13.5
2004-06-11 07:18:43 51°14.474 2°50.33 246.3 2.1 243 13.5
2004-06-11 07:18:49 51°14.472 2°50.325 246.5 2.1 243 13.5
2004-06-11 07:18:54 51°14.471 2°50.321 246.6 2.1 242 13.4
2004-06-11 07:18:59 51°14.47 2°50.317 246.4 2.1 242 13.5
2004-06-11 07:19:05 51°14.468 2°50.312 246.5 2.1 242 13.5
2004-06-11 07:19:09 51°14.467 2°50.309 246.5 2.1 243 13.5
2004-06-11 07:19:14 51°14.466 2°50.304 246.6 2.1 242 13.5
2004-06-11 07:19:19 51°14.464 2°50.3 246.6 2.1 244 13.5
2004-06-11 07:19:23 51°14.463 2°50.297 246.5 2.2 241 13.5
2004-06-11 07:19:28 51°14.462 2°50.292 246.5 2.2 240 13.5
2004-06-11 07:19:34 51°14.46 2°50.287 246.3 2.2 242 13.5
2004-06-11 07:19:39 51°14.458 2°50.283 245.9 2.2 240 13.6
2004-06-11 07:19:45 51°14.457 2°50.278 245.6 2.2 241 13.5
2004-06-11 07:19:50 51°14.455 2°50.274 245.4 2.2 238 13.4
2004-06-11 07:19:54 51°14.454 2°50.271 245.1 2.2 240 13.4
2004-06-11 07:19:59 51°14.452 2°50.267 245 2.2 239 13.5
2004-06-11 07:20:03 51°14.451 2°50.263 245.1 2.2 239 13.5
2004-06-11 07:20:09 51°14.449 2°50.258 245.2 2.2 239 13.5
2004-06-11 07:20:14 51°14.448 2°50.254 245.3 2.2 241 13.5
2004-06-11 07:20:19 51°14.446 2°50.25 245.2 2.3 240 13.5
2004-06-11 07:20:23 51°14.445 2°50.246 245.3 2.3 240 13.4
2004-06-11 07:20:30 51°14.443 2°50.24 245.4 2.3 242 13.5
2004-06-11 07:20:34 51°14.442 2°50.236 245.8 2.3 241 13.5
2004-06-11 07:20:39 51°14.44 2°50.232 246.1 2.3 243 13.4
2004-06-11 07:20:46 51°14.438 2°50.226 246.2 2.2 242 13.5
2004-06-11 07:20:50 51°14.437 2°50.222 246.5 2.2 240 13.5
2004-06-11 07:20:54 51°14.436 2°50.219 246.7 2.2 242 13.4
2004-06-11 07:20:59 51°14.434 2°50.215 246.3 2.2 239 13.4
2004-06-11 07:21:03 51°14.433 2°50.211 246.2 2.2 241 13.4
2004-06-11 07:21:09 51°14.431 2°50.207 246 2.2 240 13.5
2004-06-11 07:21:14 51°14.43 2°50.202 246.1 2.2 243 13.4
2004-06-11 07:21:19 51°14.428 2°50.198 246 2.2 240 13.4
2004-06-11 07:21:23 51°14.427 2°50.195 246 2.2 241 13.5
2004-06-11 07:21:29 51°14.425 2°50.19 246.3 2.2 244 13.5
2004-06-11 07:21:34 51°14.424 2°50.185 246.2 2.2 240 13.4
2004-06-11 07:21:38 51°14.423 2°50.182 246.1 2.2 243 13.4
2004-06-11 07:21:43 51°14.421 2°50.178 246 2.2 241 13.5
2004-06-11 07:21:50 51°14.419 2°50.172 245.8 2.2 240 13.4
2004-06-11 07:21:54 51°14.418 2°50.168 245.4 2.2 242 13.4
2004-06-11 07:21:59 51°14.416 2°50.164 245.3 2.2 238 13.4
2004-06-11 07:22:03 51°14.415 2°50.161 244.8 2.2 239 13.4
2004-06-11 07:22:09 51°14.413 2°50.156 244.7 2.2 238 13.4
2004-06-11 07:22:14 51°14.412 2°50.152 244.4 2.2 238 13.5
2004-06-11 07:22:19 51°14.41 2°50.148 244.1 2.2 237 13.4
2004-06-11 07:22:23 51°14.408 2°50.144 244 2.3 235 13.5
2004-06-11 07:22:29 51°14.406 2°50.139 244 2.2 238 13.4
2004-06-11 07:22:34 51°14.405 2°50.135 244 2.2 235 13.4
2004-06-11 07:22:39 51°14.403 2°50.131 244.2 2.2 237 13.4
2004-06-11 07:22:43 51°14.402 2°50.128 244.1 2.2 236 13.4
2004-06-11 07:22:50 51°14.399 2°50.122 244.1 2.2 236 13.5
2004-06-11 07:22:54 51°14.398 2°50.119 243.8 2.3 238 13.5
2004-06-11 07:22:59 51°14.396 2°50.115 244 2.3 238 13.4
2004-06-11 07:23:03 51°14.395 2°50.111 244.2 2.3 239 13.3
2004-06-11 07:23:10 51°14.393 2°50.105 244.6 2.3 239 13.5
2004-06-11 07:23:14 51°14.391 2°50.102 245 2.3 241 13.4
2004-06-11 07:23:18 51°14.39 2°50.098 245.3 2.3 242 13.4
2004-06-11 07:23:26 51°14.388 2°50.091 245.6 2.3 243 13.2
2004-06-11 07:23:30 51°14.387 2°50.088 246 2.3 242 13.4
2004-06-11 07:23:34 51°14.386 2°50.084 246.5 2.2 244 13.4
2004-06-11 07:23:39 51°14.384 2°50.08 246.7 2.2 244 13.4
2004-06-11 07:23:43 51°14.383 2°50.076 246.8 2.3 244 13.5
2004-06-11 07:23:50 51°14.382 2°50.07 247 2.3 246 13.5
2004-06-11 07:23:54 51°14.381 2°50.066 247.4 2.3 246 13.4
2004-06-11 07:23:59 51°14.379 2°50.061 247.5 2.3 246 13.4
2004-06-11 07:24:03 51°14.378 2°50.058 247.4 2.3 246 13.5
2004-06-11 07:24:09 51°14.377 2°50.052 247.3 2.3 245 13.5
2004-06-11 07:24:14 51°14.375 2°50.048 246.9 2.3 244 13.4
2004-06-11 07:24:19 51°14.374 2°50.043 246.6 2.3 243 13.4
2004-06-11 07:24:26 51°14.372 2°50.037 246.1 2.3 243 13.4
2004-06-11 07:24:30 51°14.371 2°50.033 245.6 2.3 243 13.5
2004-06-11 07:24:34 51°14.37 2°50.03 245.3 2.3 243 13.4
2004-06-11 07:24:39 51°14.368 2°50.025 245.1 2.3 241 13.4
2004-06-11 07:24:43 51°14.367 2°50.022 245.3 2.2 242 13.4
2004-06-11 07:24:50 51°14.365 2°50.016 245.1 2.2 238 13.4
2004-06-11 07:24:54 51°14.363 2°50.013 244.5 2.2 239 13.4
2004-06-11 07:24:59 51°14.362 2°50.009 243.8 2.2 236 13.4
2004-06-11 07:25:03 51°14.361 2°50.005 243.2 2.2 238 13.3
2004-06-11 07:25:10 51°14.358 2°50 243 2.2 240 13.3
2004-06-11 07:25:14 51°14.357 2°49.996 242.8 2.2 239 13.4
2004-06-11 07:25:18 51°14.356 2°49.993 243.1 2.2 241 13.4
2004-06-11 07:25:23 51°14.354 2°49.989 243.7 2.2 240 13.4
2004-06-11 07:25:27 51°14.353 2°49.985 243.8 2.2 239 13.5
2004-06-11 07:25:34 51°14.351 2°49.98 244.1 2.2 240 13.5
2004-06-11 07:25:39 51°14.349 2°49.975 244.1 2.2 241 13.4
2004-06-11 07:25:44 51°14.348 2°49.971 244.3 2.2 240 13.4
2004-06-11 07:25:49 51°14.347 2°49.967 244.2 2.2 241 13.3
2004-06-11 07:25:54 51°14.345 2°49.963 244.2 2.2 242 13.4
2004-06-11 07:25:59 51°14.344 2°49.959 244.2 2.2 241 13.4
2004-06-11 07:26:03 51°14.342 2°49.955 244.2 2.2 240 13.4
2004-06-11 07:26:10 51°14.34 2°49.949 244.2 2.3 241 13.5
2004-06-11 07:26:14 51°14.339 2°49.946 244.3 2.2 241 13.4
2004-06-11 07:26:19 51°14.338 2°49.942 244.1 2.2 238 13.4
2004-06-11 07:26:23 51°14.336 2°49.938 243.7 2.1 239 13.4
2004-06-11 07:26:29 51°14.334 2°49.934 243.1 2.2 239 13.4
2004-06-11 07:26:34 51°14.333 2°49.929 243.1 2.2 240 13.4
2004-06-11 07:26:39 51°14.331 2°49.925 243.1 2.2 238 13.4
2004-06-11 07:26:43 51°14.33 2°49.922 243 2.2 241 13.4
2004-06-11 07:26:50 51°14.328 2°49.916 243.1 2.2 239 13.5
2004-06-11 07:26:54 51°14.327 2°49.913 243.2 2.2 241 13.4
2004-06-11 07:26:59 51°14.325 2°49.909 243 2.1 236 13.5
2004-06-11 07:27:03 51°14.324 2°49.906 242.8 2.1 239 13.5
2004-06-11 07:27:10 51°14.322 2°49.901 242.4 2.1 238 13.4
2004-06-11 07:27:14 51°14.321 2°49.898 242.1 2.1 238 13.4
2004-06-11 07:27:19 51°14.319 2°49.894 241.9 2.1 238 13.3
2004-06-11 07:27:23 51°14.318 2°49.891 241.9 2.1 238 13.4
2004-06-11 07:27:30 51°14.316 2°49.885 242 2 237 13.5
2004-06-11 07:27:34 51°14.314 2°49.882 242.1 2.1 236 13.5
2004-06-11 07:27:39 51°14.313 2°49.878 242.2 2.1 236 13.5
2004-06-11 07:27:43 51°14.311 2°49.875 242.1 2.1 236 13.4
2004-06-11 07:27:49 51°14.309 2°49.871 241.8 2.1 237 13.4
2004-06-11 07:27:54 51°14.308 2°49.867 241.9 2.1 235 13.4
2004-06-11 07:27:59 51°14.306 2°49.863 242.1 2.1 238 13.5
2004-06-11 07:28:03 51°14.305 2°49.86 242.4 2.1 234 13.4
2004-06-11 07:28:09 51°14.303 2°49.855 242.6 2 236 13.4
2004-06-11 07:28:14 51°14.301 2°49.851 242.9 2 237 13.4
2004-06-11 07:28:18 51°14.3 2°49.848 243.5 2.1 239 13.5
2004-06-11 07:28:26 51°14.298 2°49.842 243.7 2.1 238 13.4
2004-06-11 07:28:29 51°14.297 2°49.84 243.7 2.1 240 13.5
2004-06-11 07:28:33 51°14.295 2°49.836 243.7 2.1 239 13.4
2004-06-11 07:28:39 51°14.294 2°49.832 243.8 2.1 238 13.5
2004-06-11 07:28:43 51°14.292 2°49.829 244.1 2.1 239 13.5
2004-06-11 07:28:49 51°14.291 2°49.824 243.9 2.1 238 13.5
2004-06-11 07:28:54 51°14.289 2°49.82 243.8 2.1 240 13.5
2004-06-11 07:28:59 51°14.288 2°49.815 243.7 2.1 239 13.5
2004-06-11 07:29:04 51°14.286 2°49.811 243.8 2.2 240 13.5
2004-06-11 07:29:08 51°14.285 2°49.808 243.7 2.2 240 13.5
2004-06-11 07:29:14 51°14.283 2°49.803 243.7 2.2 238 13.5
2004-06-11 07:29:19 51°14.281 2°49.799 243.6 2.2 240 13.4
2004-06-11 07:29:23 51°14.28 2°49.796 243.6 2.2 239 13.5
2004-06-11 07:29:29 51°14.278 2°49.791 243.4 2.2 240 13.5
2004-06-11 07:29:34 51°14.277 2°49.787 243.3 2.2 237 13.4
2004-06-11 07:29:39 51°14.275 2°49.783 243 2.2 237 13.5
2004-06-11 07:29:43 51°14.274 2°49.779 242.6 2.2 235 13.5
2004-06-11 07:29:49 51°14.271 2°49.775 242.2 2.2 236 13.5
2004-06-11 07:29:54 51°14.27 2°49.771 241.9 2.1 236 13.4
2004-06-11 07:29:59 51°14.268 2°49.767 241.9 2.1 234 13.5
2004-06-11 07:30:03 51°14.267 2°49.764 241.6 2.1 234 13.5
2004-06-11 07:30:09 51°14.265 2°49.76 241.5 2.1 232 13.5
2004-06-11 07:30:14 51°14.263 2°49.756 241.2 2 233 13.3
2004-06-11 07:30:19 51°14.261 2°49.753 241 2 232 13.4
2004-06-11 07:30:23 51°14.26 2°49.75 240.9 2 231 13.4
2004-06-11 07:30:29 51°14.258 2°49.746 240.9 2 231 13.4
2004-06-11 07:30:33 51°14.256 2°49.743 241 2 232 13.5
2004-06-11 07:30:38 51°14.255 2°49.74 241 1.9 233 13.5
2004-06-11 07:30:43 51°14.253 2°49.736 241 2 235 13.5
2004-06-11 07:30:50 51°14.251 2°49.731 241.3 2 234 13.5
2004-06-11 07:30:54 51°14.249 2°49.728 241.9 2 236 13.5
2004-06-11 07:30:59 51°14.248 2°49.725 242.3 2 235 13.5
2004-06-11 07:31:03 51°14.247 2°49.722 242.7 2.1 236 13.6
2004-06-11 07:31:10 51°14.244 2°49.717 243.2 2 238 13.5
2004-06-11 07:31:14 51°14.243 2°49.714 243.4 2 237 13.4
2004-06-11 07:31:18 51°14.242 2°49.71 243.7 2 240 13.4
2004-06-11 07:31:24 51°14.24 2°49.706 244.1 2.1 241 13.5
2004-06-11 07:31:29 51°14.239 2°49.702 244.5 2.1 241 13.4
2004-06-11 07:31:34 51°14.238 2°49.698 245.2 2.1 242 13.4
2004-06-11 07:31:39 51°14.236 2°49.694 245.8 2.1 243 13.5
2004-06-11 07:31:46 51°14.235 2°49.688 245.8 2.1 244 13.5
2004-06-11 07:31:49 51°14.234 2°49.686 246.4 2 242 13.4
2004-06-11 07:31:53 51°14.233 2°49.683 246.5 2 243 13.5
2004-06-11 07:31:59 51°14.231 2°49.678 246.5 2 243 13.4
2004-06-11 07:32:03 51°14.23 2°49.674 246.5 2.1 246 13.4
2004-06-11 07:32:09 51°14.229 2°49.669 246.7 2.1 247 13.6
2004-06-11 07:32:14 51°14.228 2°49.665 247.3 2.1 245 13.4
2004-06-11 07:32:19 51°14.227 2°49.661 247.9 2.1 250 13.5
2004-06-11 07:32:22 51°14.226 2°49.658 248.6 2.1 248 13.5
2004-06-11 07:32:29 51°14.225 2°49.652 248.9 2.1 253 13.4
2004-06-11 07:32:34 51°14.223 2°49.648 249 2.1 247 13.5
2004-06-11 07:32:38 51°14.223 2°49.645 249.1 2.1 251 13.4
2004-06-11 07:32:43 51°14.222 2°49.64 249.1 2.1 250 13.4
2004-06-11 07:32:49 51°14.221 2°49.635 249.2 2.1 250 13.4
2004-06-11 07:32:55 51°14.22 2°49.63 249.4 2.1 254 13.4
2004-06-11 07:32:59 51°14.219 2°49.626 249.7 2.1 251 13.5
2004-06-11 07:33:05 51°14.218 2°49.621 249.9 2.1 253 13.4
2004-06-11 07:33:09 51°14.217 2°49.617 249.8 2.1 253 13.5
2004-06-11 07:33:15 51°14.216 2°49.612 249.8 2.1 251 13.3
2004-06-11 07:33:19 51°14.215 2°49.608 249.5 2.1 254 13.4
2004-06-11 07:33:23 51°14.214 2°49.604 249.5 2.1 250 13.5
2004-06-11 07:33:29 51°14.213 2°49.599 249.4 2.1 249 13.5
2004-06-11 07:33:34 51°14.212 2°49.595 249 2.1 251 13.5
2004-06-11 07:33:39 51°14.211 2°49.59 248.9 2.1 251 13.5
2004-06-11 07:33:44 51°14.21 2°49.586 248.9 2.1 250 13.4
2004-06-11 07:33:47 51°14.21 2°49.583 249.1 2.2 252 13.5
2004-06-11 07:33:54 51°14.208 2°49.576 249.2 2.2 252 13.6
2004-06-11 07:33:59 51°14.208 2°49.571 249.6 2.3 255 13.5
2004-06-11 07:34:04 51°14.207 2°49.567 250.3 2.2 252 13.4
2004-06-11 07:34:09 51°14.206 2°49.562 250.9 2.2 254 13.5
2004-06-11 07:34:14 51°14.205 2°49.557 251.3 2.2 256 13.5
2004-06-11 07:34:19 51°14.204 2°49.553 252.1 2.2 256 13.4
2004-06-11 07:34:23 51°14.204 2°49.549 252.9 2.2 258 13.5
2004-06-11 07:34:29 51°14.203 2°49.543 253.5 2.2 258 13.5
2004-06-11 07:34:34 51°14.202 2°49.538 254.6 2.2 260 13.5
2004-06-11 07:34:39 51°14.202 2°49.533 255.4 2.2 261 13.5
2004-06-11 07:34:45 51°14.202 2°49.527 256.8 2.2 263 13.6
2004-06-11 07:34:49 51°14.201 2°49.524 258 2.2 266 13.6
2004-06-11 07:34:53 51°14.201 2°49.52 259.7 2.2 266 13.5
2004-06-11 07:34:59 51°14.201 2°49.514 260.9 2.2 270 13.5
2004-06-11 07:35:03 51°14.201 2°49.51 262.3 2.3 271 13.5
2004-06-11 07:35:10 51°14.201 2°49.503 263.4 2.2 271 13.5
2004-06-11 07:35:14 51°14.202 2°49.499 264.5 2.2 275 13.5
2004-06-11 07:35:19 51°14.202 2°49.494 266 2.3 275 13.5
2004-06-11 07:35:23 51°14.202 2°49.49 267.6 2.4 279 13.5
2004-06-11 07:35:26 51°14.203 2°49.487 269.1 2.4 280 13.5
2004-06-11 07:35:34 51°14.204 2°49.479 270.7 2.4 280 13.5
2004-06-11 07:35:39 51°14.205 2°49.473 271.7 2.4 285 13.6
2004-06-11 07:35:42 51°14.205 2°49.471 273.4 2.2 286 13.5
2004-06-11 07:35:49 51°14.207 2°49.465 274.3 2.1 292 13.6
2004-06-11 07:35:54 51°14.208 2°49.461 275.6 2 292 13.6
2004-06-11 07:35:59 51°14.209 2°49.457 276.6 2 297 13.6
2004-06-11 07:36:03 51°14.21 2°49.454 277.6 1.9 301 13.6
2004-06-11 07:36:09 51°14.211 2°49.45 278.7 1.8 305 13.7
2004-06-11 07:36:13 51°14.213 2°49.448 280.1 1.8 312 13.6
2004-06-11 07:36:18 51°14.215 2°49.445 281.9 1.7 317 13.7
2004-06-11 07:36:23 51°14.216 2°49.443 284.2 1.7 320 13.7
2004-06-11 07:36:30 51°14.219 2°49.44 286 1.6 325 13.7
2004-06-11 07:36:34 51°14.22 2°49.438 287.7 1.6 328 13.8
2004-06-11 07:36:39 51°14.222 2°49.437 289.3 1.6 330 13.9
2004-06-11 07:36:43 51°14.224 2°49.435 290.4 1.6 332 13.8
2004-06-11 07:36:50 51°14.227 2°49.433 291.1 1.5 336 13.8
2004-06-11 07:36:54 51°14.228 2°49.432 292.1 1.5 338 13.8
2004-06-11 07:36:59 51°14.23 2°49.431 292.8 1.5 340 13.9
2004-06-11 07:37:02 51°14.232 2°49.431 293.3 1.5 342 13.9
2004-06-11 07:37:10 51°14.235 2°49.429 293.8 1.5 344 13.9
2004-06-11 07:37:14 51°14.237 2°49.429 294.4 1.5 347 13.9
2004-06-11 07:37:20 51°14.239 2°49.428 294.9 1.5 349 14
2004-06-11 07:37:23 51°14.24 2°49.428 295.1 1.5 349 13.9
2004-06-11 07:37:30 51°14.243 2°49.427 295.6 1.4 353 13.9
2004-06-11 07:37:35 51°14.245 2°49.427 296.1 1.5 355 13.8
2004-06-11 07:37:40 51°14.247 2°49.427 296.6 1.5 356 13.9
2004-06-11 07:37:44 51°14.249 2°49.426 296.9 1.7 357 14.1
2004-06-11 07:37:49 51°14.252 2°49.425 298 1.9 340 14
2004-06-11 07:37:55 51°14.255 2°49.423 300.4 2.3 338 14
2004-06-11 07:37:59 51°14.258 2°49.421 305.6 2.7 336 14
2004-06-11 07:38:03 51°14.261 2°49.418 312.2 3.1 337 14
2004-06-11 07:38:10 51°14.268 2°49.415 319.3 4 342 14
2004-06-11 07:38:14 51°14.273 2°49.413 329 4.4 348 14.1
2004-06-11 07:38:19 51°14.28 2°49.413 336.5 4.7 354 14
2004-06-11 07:38:26 51°14.29 2°49.414 347.5 5.1 359 14
2004-06-11 07:38:29 51°14.295 2°49.415 355.3 5.7 12 14.1
2004-06-11 07:38:34 51°14.303 2°49.419 4.3 5.9 17 14.1
2004-06-11 07:38:39 51°14.311 2°49.425 13.9 6.2 24 14.1
2004-06-11 07:38:42 51°14.315 2°49.43 25.8 6.5 33 14.2
2004-06-11 07:38:49 51°14.325 2°49.443 33.5 6.7 42 14.2
2004-06-11 07:38:54 51°14.332 2°49.454 44.6 6.7 49 14.2
2004-06-11 07:38:58 51°14.336 2°49.463 52.1 6.6 52 14.3
2004-06-11 07:39:03 51°14.34 2°49.476 60.6 6.2 62 14.3
2004-06-11 07:39:09 51°14.345 2°49.49 65.8 6 60 14.3
2004-06-11 07:39:14 51°14.348 2°49.501 68.9 5.8 66 14.4
2004-06-11 07:39:18 51°14.351 2°49.51 70.9 5.6 64 14.4
2004-06-11 07:39:23 51°14.354 2°49.521 72.5 5.5 68 14.4
2004-06-11 07:39:29 51°14.357 2°49.534 73.9 5.3 68 14.4
2004-06-11 07:39:34 51°14.36 2°49.545 75.3 5.2 70 14.4
2004-06-11 07:39:39 51°14.362 2°49.556 76.6 5.1 70 14.3
2004-06-11 07:39:43 51°14.364 2°49.564 78 4.9 73 14.3
2004-06-11 07:39:49 51°14.366 2°49.576 79.2 4.9 72 14.3
2004-06-11 07:39:54 51°14.368 2°49.586 80.2 4.7 73 14.3
2004-06-11 07:39:59 51°14.37 2°49.595 81.3 4.6 72 14.3
2004-06-11 07:40:05 51°14.372 2°49.607 82.4 4.5 74 14.3
2004-06-11 07:40:09 51°14.373 2°49.614 83 4.4 74 14.2
2004-06-11 07:40:14 51°14.375 2°49.624 83.5 4.4 74 14.2
2004-06-11 07:40:19 51°14.377 2°49.633 84.2 4.3 74 14.2
2004-06-11 07:40:22 51°14.377 2°49.638 84.5 4.3 74 14.2
2004-06-11 07:40:29 51°14.38 2°49.651 84.8 4.2 74 14.2
2004-06-11 07:40:34 51°14.381 2°49.66 85 4.1 73 14.2
2004-06-11 07:40:39 51°14.383 2°49.668 85.6 4.1 75 14.1
2004-06-11 07:40:45 51°14.385 2°49.678 86.2 4 74 14.2
2004-06-11 07:40:50 51°14.386 2°49.687 86.6 3.9 74 14.2
2004-06-11 07:40:54 51°14.387 2°49.693 87.1 3.9 75 14.2
2004-06-11 07:40:59 51°14.389 2°49.701 87.7 3.8 75 14.1
2004-06-11 07:41:05 51°14.39 2°49.711 88.3 3.8 75 14.2
2004-06-11 07:41:09 51°14.391 2°49.717 88.7 3.8 76 14.2
2004-06-11 07:41:14 51°14.393 2°49.726 89.2 3.8 75 14.2
2004-06-11 07:41:19 51°14.394 2°49.734 89.6 3.8 77 14.2
2004-06-11 07:41:23 51°14.395 2°49.74 90.2 3.7 77 14.2
2004-06-11 07:41:29 51°14.397 2°49.749 90.8 3.7 76 14.2
2004-06-11 07:41:34 51°14.397 2°49.757 91.3 3.7 79 14.2
2004-06-11 07:41:38 51°14.398 2°49.764 91.9 3.7 77 14.1
2004-06-11 07:41:43 51°14.399 2°49.771 92.2 3.6 79 14.2
2004-06-11 07:41:49 51°14.4 2°49.781 92.6 3.6 78 14.1
2004-06-11 07:41:54 51°14.401 2°49.788 92.9 3.6 79 14.1
2004-06-11 07:41:59 51°14.402 2°49.796 92.8 3.6 78 14.1
2004-06-11 07:42:03 51°14.403 2°49.802 92.6 3.6 78 14.1
2004-06-11 07:42:09 51°14.404 2°49.811 92.3 3.5 77 14.1
2004-06-11 07:42:14 51°14.405 2°49.819 92.1 3.4 78 14.1
2004-06-11 07:42:19 51°14.406 2°49.826 91.8 3.4 77 14.1
2004-06-11 07:42:23 51°14.407 2°49.832 91.4 3.4 77 14.1
2004-06-11 07:42:29 51°14.409 2°49.841 91.4 3.3 77 14.1
2004-06-11 07:42:34 51°14.41 2°49.848 90.9 3.4 77 14
2004-06-11 07:42:39 51°14.411 2°49.856 90.5 3.4 77 14
2004-06-11 07:42:43 51°14.412 2°49.861 89.8 3.4 75 14
2004-06-11 07:42:49 51°14.413 2°49.87 88.7 3.3 75 14
2004-06-11 07:42:54 51°14.415 2°49.877 87.7 3.3 74 14
2004-06-11 07:42:59 51°14.416 2°49.884 86.3 3.3 74 14
2004-06-11 07:43:03 51°14.417 2°49.89 84.9 3.3 73 14
2004-06-11 07:43:09 51°14.419 2°49.898 83.6 3.3 73 13.9
2004-06-11 07:43:14 51°14.42 2°49.905 82.3 3.3 71 14
2004-06-11 07:43:19 51°14.422 2°49.912 81 3.3 72 14
2004-06-11 07:43:23 51°14.423 2°49.917 79.9 3.3 70 13.9
2004-06-11 07:43:29 51°14.425 2°49.926 78.8 3.3 70 14
2004-06-11 07:43:34 51°14.427 2°49.932 77.8 3.3 69 14
2004-06-11 07:43:39 51°14.429 2°49.939 76.8 3.3 69 13.9
2004-06-11 07:43:43 51°14.43 2°49.944 75.9 3.2 69 13.9
2004-06-11 07:43:49 51°14.432 2°49.952 75 3.2 68 13.9
2004-06-11 07:43:53 51°14.433 2°49.958 74 3.2 69 14
2004-06-11 07:43:59 51°14.435 2°49.966 73.3 3.2 69 13.9
2004-06-11 07:44:05 51°14.437 2°49.973 72.8 3.2 67 13.9
2004-06-11 07:44:09 51°14.439 2°49.979 72.3 3.2 66 13.9
2004-06-11 07:44:14 51°14.441 2°49.985 71.8 3.2 67 13.9
2004-06-11 07:44:18 51°14.442 2°49.991 71.4 3.2 66 13.9
2004-06-11 07:44:24 51°14.444 2°49.998 71.1 3.2 68 13.8
2004-06-11 07:44:29 51°14.446 2°50.005 70.6 3.2 67 13.8
2004-06-11 07:44:34 51°14.448 2°50.012 70.6 3.3 66 13.8
2004-06-11 07:44:39 51°14.45 2°50.018 70.3 3.3 66 13.8
2004-06-11 07:44:43 51°14.452 2°50.023 70 3.3 64 13.8
2004-06-11 07:44:49 51°14.454 2°50.031 69.6 3.3 66 13.8
2004-06-11 07:44:54 51°14.456 2°50.038 69.6 3.3 64 13.8
2004-06-11 07:44:58 51°14.457 2°50.043 69.4 3.3 65 13.8
2004-06-11 07:45:03 51°14.459 2°50.05 69.4 3.3 64 13.8
2004-06-11 07:45:10 51°14.462 2°50.059 69.4 3.3 66 13.8
2004-06-11 07:45:14 51°14.464 2°50.064 69.4 3.3 64 13.8
2004-06-11 07:45:19 51°14.466 2°50.071 69.5 3.3 65 13.8
2004-06-11 07:45:23 51°14.468 2°50.076 69.6 3.2 67 13.8
2004-06-11 07:45:29 51°14.47 2°50.084 69.7 3.3 67 13.8
2004-06-11 07:45:34 51°14.472 2°50.091 69.9 3.3 68 13.8
2004-06-11 07:45:39 51°14.474 2°50.098 70.2 3.3 67 13.9
2004-06-11 07:45:43 51°14.475 2°50.103 70.4 3.3 67 13.8
2004-06-11 07:45:50 51°14.478 2°50.113 70.4 3.3 67 13.9
2004-06-11 07:45:53 51°14.478 2°50.117 70.4 3.3 66 13.7
2004-06-11 07:45:59 51°14.481 2°50.125 70.4 3.3 67 13.8
2004-06-11 07:46:05 51°14.483 2°50.133 70.2 3.2 67 13.8
2004-06-11 07:46:09 51°14.485 2°50.138 70.2 3.3 66 13.8
2004-06-11 07:46:14 51°14.486 2°50.145 70.1 3.3 66 13.7
2004-06-11 07:46:19 51°14.488 2°50.151 70.1 3.3 66 13.8
2004-06-11 07:46:23 51°14.49 2°50.157 70 3.3 66 13.7
2004-06-11 07:46:29 51°14.492 2°50.165 69.7 3.3 66 13.7
2004-06-11 07:46:33 51°14.494 2°50.17 69.6 3.3 65 13.8
2004-06-11 07:46:38 51°14.496 2°50.177 69.4 3.3 65 13.7
2004-06-11 07:46:43 51°14.498 2°50.183 69.2 3.3 66 13.8
2004-06-11 07:46:49 51°14.5 2°50.191 69.2 3.3 66 13.7
2004-06-11 07:46:54 51°14.502 2°50.198 69.1 3.3 64 13.8
2004-06-11 07:46:59 51°14.504 2°50.204 69 3.3 66 13.8
2004-06-11 07:47:03 51°14.506 2°50.21 69 3.4 65 13.8
2004-06-11 07:47:09 51°14.508 2°50.218 68.9 3.3 66 13.9
2004-06-11 07:47:15 51°14.51 2°50.226 68.8 3.3 65 13.8
2004-06-11 07:47:18 51°14.511 2°50.23 68.5 3.3 65 13.8
2004-06-11 07:47:23 51°14.513 2°50.236 68.3 3.3 64 13.8
2004-06-11 07:47:29 51°14.516 2°50.244 68 3.4 65 13.8
2004-06-11 07:47:34 51°14.518 2°50.251 67.5 3.3 63 13.8
2004-06-11 07:47:39 51°14.52 2°50.258 67.3 3.3 64 13.7
2004-06-11 07:47:43 51°14.521 2°50.263 67.3 3.3 63 13.7
2004-06-11 07:47:50 51°14.525 2°50.272 67.3 3.3 64 13.8
2004-06-11 07:47:54 51°14.526 2°50.277 67.3 3.3 63 13.8
2004-06-11 07:47:59 51°14.528 2°50.284 67.2 3.3 63 13.8
2004-06-11 07:48:03 51°14.53 2°50.289 67.4 3.3 64 13.7
2004-06-11 07:48:10 51°14.533 2°50.298 67.5 3.3 63 13.8
2004-06-11 07:48:14 51°14.535 2°50.303 67.6 3.3 62 13.8
2004-06-11 07:48:19 51°14.537 2°50.31 67.6 3.3 63 13.8
2004-06-11 07:48:23 51°14.538 2°50.315 67.8 3.3 62 13.8
2004-06-11 07:48:29 51°14.541 2°50.323 67.9 3.3 62 13.8
2004-06-11 07:48:34 51°14.543 2°50.329 68.1 3.3 64 13.8
2004-06-11 07:48:38 51°14.544 2°50.334 68.2 3.3 61 13.8
2004-06-11 07:48:43 51°14.547 2°50.341 68.1 3.3 63 13.8
2004-06-11 07:48:49 51°14.549 2°50.349 68.1 3.3 62 13.8
2004-06-11 07:48:53 51°14.551 2°50.354 67.7 3.3 62 13.8
2004-06-11 07:48:59 51°14.554 2°50.362 67.6 3.3 62 13.8
2004-06-11 07:49:03 51°14.555 2°50.367 67.8 3.3 63 13.7
2004-06-11 07:49:09 51°14.558 2°50.375 68.2 3.3 62 13.8
2004-06-11 07:49:13 51°14.56 2°50.38 68.7 3.3 63 13.8
2004-06-11 07:49:19 51°14.562 2°50.388 69.4 3.3 63 13.8
2004-06-11 07:49:23 51°14.564 2°50.393 70.2 3.4 63 13.9
2004-06-11 07:49:29 51°14.566 2°50.401 71.1 3.4 64 13.9
2004-06-11 07:49:34 51°14.568 2°50.408 72 3.3 65 13.9
2004-06-11 07:49:39 51°14.57 2°50.414 72.7 3.3 65 13.9
2004-06-11 07:49:43 51°14.571 2°50.42 73.3 3.3 66 13.9
2004-06-11 07:49:49 51°14.574 2°50.427 73.8 3.3 65 13.9
2004-06-11 07:49:53 51°14.575 2°50.433 74.4 3.3 67 13.9
2004-06-11 07:49:59 51°14.577 2°50.441 74.9 3.3 66 13.9
2004-06-11 07:50:03 51°14.579 2°50.446 75.4 3.3 67 14
2004-06-11 07:50:10 51°14.581 2°50.455 75.7 3.3 66 14
2004-06-11 07:50:14 51°14.583 2°50.46 76.2 3.3 68 14
2004-06-11 07:50:19 51°14.585 2°50.467 76.5 3.3 66 14
2004-06-11 07:50:23 51°14.586 2°50.472 76.8 3.3 68 14
2004-06-11 07:50:29 51°14.588 2°50.481 76.9 3.3 67 14
2004-06-11 07:50:34 51°14.59 2°50.487 76.7 3.3 68 14
2004-06-11 07:50:39 51°14.592 2°50.494 76.6 3.3 67 14
2004-06-11 07:50:43 51°14.593 2°50.499 76.4 3.3 67 13.9
2004-06-11 07:50:49 51°14.595 2°50.508 76.3 3.3 67 13.9
2004-06-11 07:50:54 51°14.597 2°50.514 76.1 3.3 67 13.9
2004-06-11 07:50:59 51°14.599 2°50.521 75.9 3.3 67 13.9
2004-06-11 07:51:03 51°14.6 2°50.526 75.8 3.3 67 14
2004-06-11 07:51:09 51°14.602 2°50.535 75.7 3.3 67 13.9
2004-06-11 07:51:14 51°14.605 2°50.541 75.6 3.3 65 13.9
2004-06-11 07:51:18 51°14.606 2°50.547 75.5 3.3 68 13.9
2004-06-11 07:51:23 51°14.608 2°50.553 75.5 3.3 65 13.9
2004-06-11 07:51:29 51°14.61 2°50.562 75.5 3.3 66 13.9
2004-06-11 07:51:34 51°14.612 2°50.568 75.5 3.4 67 13.9
2004-06-11 07:51:39 51°14.614 2°50.575 75.6 3.4 67 13.9
2004-06-11 07:51:45 51°14.616 2°50.583 75.8 3.3 66 13.9
2004-06-11 07:51:49 51°14.617 2°50.589 76 3.3 66 13.9
2004-06-11 07:51:54 51°14.619 2°50.596 76.2 3.4 66 13.9
2004-06-11 07:51:59 51°14.621 2°50.603 76.6 3.4 66 13.9
2004-06-11 07:52:05 51°14.623 2°50.611 76.7 3.3 66 13.9
2004-06-11 07:52:09 51°14.625 2°50.616 76.9 3.3 67 13.9
2004-06-11 07:52:14 51°14.627 2°50.623 77 3.3 67 13.9
2004-06-11 07:52:19 51°14.629 2°50.63 77.4 3.4 66 13.8
2004-06-11 07:52:23 51°14.63 2°50.636 77.8 3.3 68 13.8
2004-06-11 07:52:29 51°14.632 2°50.644 78.2 3.4 69 13.8
2004-06-11 07:52:34 51°14.634 2°50.651 78.6 3.4 68 13.8
2004-06-11 07:52:39 51°14.636 2°50.657 79.3 3.3 67 13.9
2004-06-11 07:52:43 51°14.637 2°50.663 79.7 3.3 68 13.8
2004-06-11 07:52:48 51°14.639 2°50.67 80.2 3.3 68 13.9
2004-06-11 07:52:54 51°14.641 2°50.678 80.8 3.3 70 13.9
2004-06-11 07:52:59 51°14.643 2°50.685 81.5 3.3 69 13.8
2004-06-11 07:53:03 51°14.644 2°50.69 82 3.3 69 13.8
2004-06-11 07:53:08 51°14.645 2°50.697 82.7 3.3 70 13.9
2004-06-11 07:53:14 51°14.647 2°50.705 83.4 3.3 71 13.9
2004-06-11 07:53:19 51°14.649 2°50.712 84 3.3 70 13.9